Other Surface Observations
Issued by NWS Tucson, AZ

Home | Current Version | Previous Version | Text Only | Print | Product List | Glossary On
Versions: 1 2 3 4 5 6 7 8 9 10 11 12 13 14 15 16 17 18 19 20 21 22 23 24 25 26 27 28 29 30 31 32 33 34 35 36 37 38 39 40 41 42 43 44 45 46 47 48 49 50
862
SXUS55 KTWC 301315
OSOTWC

WEATHER ROUNDUP FOR SOUTHEAST ARIZONA
NATIONAL WEATHER SERVICE TUCSON AZ
615 AM MST FRI SEP 30 2016

AZZ504>506-514-301415-
LOCATION       SKY/WX    TMP DP  RH WIND       PRES   REMARKS
TUCSON         CLEAR     72  59  63 SE14      30.13S
DAVIS-MONTHAN  CLEAR     69  60  73 SE13      30.13R
CHILDRENS PARK N/A      N/A N/A  86 E3                PIMA CO DEQ
ALVERNON/22ND  N/A       71 N/A N/A SE8               PIMA CO DEQ
CHERRY/GLENN   N/A       66 N/A N/A E3                PIMA CO DEQ
TANGERINE      N/A       66 N/A N/A E6                PIMA CO DEQ
CONTL RANCH    N/A       68  61  78 SE6               PIMA CO DEQ
GRANT/1ST      N/A       68  61  78 SE4               PIMA CO DEQ
CRAYCROFT/22ND N/A       69  60  74 SE7               PIMA CO DEQ
GOLFLINKS/KOLB N/A       69  60  74 SE6               PIMA CO DEQ
AJO/12TH       N/A       68  62  82 SE6               PIMA CO DEQ
FAIRGROUNDS    N/A       70 N/A N/A SE17              PIMA CO DEQ
SAGUARO        N/A       63  62  96 N3                *SABINO CYN
SAN CARLOS     N/A       65  58  77 NE3               *SAN CARLOS
GREEN VALLEY   N/A       65  60  84 S3                PIMA CO DEQ
HORSE CAMP CYN N/A       62  57  85 E13G17            *ARAVAIPA CYN
RINCON MTNS    NOT AVBL
$$

AZZ509>511-301415-
LOCATION       SKY/WX    TMP DP  RH WIND       PRES   REMARKS
SAFFORD        CLEAR     62  59  90 SE10      30.21R
STRAY HORSE    N/A       48  43  83 N3                *
TRAIL CABIN    N/A       53  48  82 SE5               *N OF GRANVILLE
BLACK HILLS    NOT AVBL
DRY LAKE       N/A       50  47  88 SE7G13            *NATANES MTNS
NOON CREEK     NOT AVBL
COLUMBINE      N/A       40  40  100 CALM             *PINALENO MTNS
GUTHRIE        N/A       55  52  88 NE7G10            *SW OF GUTHRIE
$$

AZZ502-503-513-301415-
LOCATION       SKY/WX    TMP DP  RH WIND       PRES   REMARKS
NOGALES        CLEAR     62  57  83 NE3       30.21R
SELLS          N/A       69  60  73 E5                *
SASABE         N/A       59  58  97 S3                *ALTAR VLY
HOPKINS        N/A       60  50  69 NE2               *SANTA RITA MTNS
CARR CYN       N/A       59  57  93 SW2               *W OF HEREFORD
$$

AZZ507-508-512-301415-
LOCATION       SKY/WX    TMP DP  RH WIND       PRES   REMARKS
SIERRA VISTA   PTCLDY    59  57  94 SE3       30.27S
DOUGLAS        LGT RAIN  61  60  97 N8        30.26S
EMPIRE MTNS    NOT AVBL
MULESHOE RANCH N/A       65  56  72 E5G23             *PRESERVE
HEADQUARTERS   NOT AVBL
$$

.............................NOTES.............................
THIS IS AN AUTOMATED COLLECTIVE WITH MINIMAL QUALITY CONTROL.
PIMA CO DEQ SITES HAVE NONSTANDARD WIND SENSOR HEIGHTS.
PIMA CO DEQ SITES DO NOT REPORT WIND GUSTS.
* INDICATES WIND SENSORS LOCATED AT 20 FEET INSTEAD OF 33 FEET.
..............................KEY..............................
SKY/WX - SKY CONDITION/WEATHER
TMP    - TEMPERATURE IN FAHRENHEIT
DP     - DEWPOINT IN FAHRENHEIT
RH     - RELATIVE HUMIDITY IN PERCENT
WIND   - DIRECTION AND SPEED IN MILES PER HOUR (MPH)
VRB    - VARIABLE WIND DIRECTION
PRES   - MEAN SEA LEVEL PRESSURE IN INCHES OF MERCURY
         F - FALLING PRESSURE   R - RISING PRESSURE
         S - STEADY PRESSURE
VSB    - VISIBILITY IN MILES
HX     - HEAT INDEX IN FAHRENHEIT
WCI    - WIND CHILL INDEX IN FAHRENHEIT
N/A    - NOT AVAILABLE
AFB    - AIR FORCE BASE
         DAVIS-MONTHAN IS DAVIS-MONTHAN AIR FORCE BASE
CYN    - CANYON
MTNS   - MOUNTAINS
NCA    - NATIONAL CONSERVATION AREA
NR     - NEAR
VLY    - VALLEY
CONTL  - CONTINENTAL
PIMA CO DEQ - PIMA COUNTY DEPT OF ENVIRONMENTAL QUALITY



USA.gov is the U.S. government's official web portal to all federal, state and local government web resources and services.